This is the latest recevied weather packets stored in our database for station/object KE8WMS. If no packets are shown the sender has not sent any weather packets the latest 10 day(s).
| Time | Temp. | Humidity | Pressure | Rain* | Wind** | Luminosity | Snow |
|---|---|---|---|---|---|---|---|
| 1777671400 | 6.67° C | 82% | 1011.5 hPa | 0 mm | - | 140 W/m² | - |
| 1777671096 | 6.67° C | 82% | 1011.5 hPa | 0 mm | - | 150 W/m² | - |
| 1777670793 | 6.67° C | 83% | 1011.5 hPa | 0 mm | - | 141 W/m² | - |
| 1777670489 | 6.67° C | 84% | 1011.6 hPa | 0 mm | - | 144 W/m² | - |
| 1777670186 | 6.11° C | 83% | 1011.5 hPa | 0 mm | - | 158 W/m² | - |
| 1777669884 | 6.11° C | 84% | 1011.6 hPa | 0 mm | - | 143 W/m² | - |
| 1777669580 | 6.11° C | 84% | 1011.5 hPa | 0 mm | - | 151 W/m² | - |
| 1777669277 | 6.11° C | 83% | 1011.2 hPa | 0 mm | - | 176 W/m² | - |
| 1777668973 | 6.11° C | 85% | 1011.5 hPa | 0 mm | - | 206 W/m² | - |
| 1777668671 | 6.11° C | 85% | 1011.5 hPa | 0 mm | - | 161 W/m² | - |
| 1777668367 | 6.11° C | 85% | 1011.1 hPa | 0 mm | - | 111 W/m² | - |
| 1777668063 | 6.11° C | 86% | 1011.1 hPa | 0 mm | - | 117 W/m² | - |
| 1777667760 | 6.11° C | 86% | 1011 hPa | 0 mm | - | 144 W/m² | - |
| 1777667458 | 6.11° C | 87% | 1011.1 hPa | 0 mm | - | 175 W/m² | - |
| 1777667154 | 6.11° C | 88% | 1011.1 hPa | 0 mm | - | 190 W/m² | - |
| 1777666851 | 5.56° C | 88% | 1011 hPa | 0 mm | - | 179 W/m² | - |
| 1777666548 | 5.56° C | 89% | 1011 hPa | 0 mm | - | 207 W/m² | - |
| 1777666244 | 5.56° C | 89% | 1011.1 hPa | 0 mm | - | 163 W/m² | - |
| 1777665942 | 5.56° C | 89% | 1011.2 hPa | 0 mm | - | 166 W/m² | - |
| 1777665639 | 5.56° C | 90% | 1011 hPa | 0 mm | - | 184 W/m² | - |
| 1777665337 | 5° C | 91% | 1010.8 hPa | 0 mm | - | 227 W/m² | - |
| 1777665032 | 5.56° C | 92% | 1010.8 hPa | 0 mm | - | 211 W/m² | - |
| 1777664727 | 5° C | 92% | 1011.2 hPa | 0 mm | - | 207 W/m² | - |
| 1777664423 | 5.56° C | 93% | 1010.9 hPa | 0 mm | - | 232 W/m² | - |
| 1777664121 | 5° C | 94% | 1010.9 hPa | 0 mm | - | 341 W/m² | - |
* Rain latest hour (hover to see other rain measurements)
** Current wind speed in m/s (hover to see current wind gust speed)